Follow iAlert.com on twitter @ialertcom
Search For Active Alerts in Your Area  
  Hi Guest:  [ Sign-up / Services ] [ Login ]

Current weather by "City, St" or "zip code"  
 

Advertise Here

Current Conditions: Wexford County Airport, MI

Rain


49.0 F

Last Updated on Oct 23 2017, 1:55 pm EDT
Humidity: 99%
Wind Speed: NE 4.6 mph
Barometer 29.74 in
Dewpoint: 48.2 F
Visibility: 7.00 mi
Precip: --
Heat Index: NA
Wind Chill: 47 F
Current conditions at:

Wexford County Airport, MI (KCAD)

Lat: 44.27 Lon: 85.42

Local Radar Image active severe weather and emergency alerts image image weather storm and storm spotter reports image weather observation monitoring service image
Local
Radar
Active
Alerts
Storm Reports Obs
Monitoring

iAlert Weather and Emergency Alert Notification Services:


ialert severe weather and emergency alerts by text message and email ialert daily weather forecast by email and text message service ialert real-time weather-observation monitoring and alert notification service ialert storm report monitoring alert notification

Observation History for Wexford County Airport, MI


Time Wind
(mph)
Vis
(mi)
Weather Precip (in) Temperature (F) Relative
Humidity
Wind
Chill
(°F)
Heat
Index
(°F)
Pressure
Air Dwpt altimeter
(in)
sea level
(mb)
1:55 pm EDT NE 4.6 7.00 Rain -- 49.0 48.2 99% 47 NA 29.74 M
12:55 pm EDT NE 6.9 5.00 Rain -- 48.0 48.2 99% 45 NA 29.79 M
11:55 am EDT NE 8.1 7.00 Rain -- 48.0 47.8 99% 44 NA 29.80 M
10:55 am EDT N 3.5 5.00 Rain -- 50.0 46.4 88% NA NA 29.86 M
10:00 am EDT N 0.0 10.00 Rain -- 51.0 48.2 91% NA NA 29.89 M
8:55 am EDT NE 5.8 7.00 Rain -- 51.0 47.8 90% 49 NA 29.90 M
7:55 am EDT NE 8.1 10.00 Light Rain -- 51.0 48.2 91% 48 NA 29.90 M
6:55 am EDT N 0.0 4.00 Heavy Rain -- 52.0 48.7 89% NA NA 29.95 M
5:55 am EDT N 4.6 5.00 Heavy Rain -- 52.0 48.9 91% 51 NA 29.92 M
4:55 am EDT N 3.5 10.00 Light Rain -- 52.0 48.7 90% NA NA 29.93 M
3:55 am EDT N 0.0 7.00 Rain -- 52.0 49.3 90% NA NA 29.96 M
2:55 am EDT N 3.5 10.00 Rain -- 52.0 49.5 90% NA NA 29.96 M
1:55 am EDT N 0.0 10.00 Rain -- 54.0 50.5 89% NA NA 29.97 M
12:55 am EDT NW 3.5 5.00 Rain -- 53.0 50.4 89% NA NA 29.98 M
11:55 pm EDT E 3.5 5.00 Rain -- 52.0 49.5 90% NA NA 29.98 M
10:55 pm EDT N 0.0 10.00 Light Drizzle -- 52.0 49.3 90% NA NA 29.99 M
9:55 pm EDT N 3.5 4.00 Heavy Rain -- 52.0 49.5 90% NA NA 30.01 M
8:55 pm EDT N 4.6 10.00 Light Rain -- 53.0 49.8 90% 52 NA 30.00 M
7:55 pm EDT N 3.5 3.00 Heavy Drizzle -- 53.0 50.2 90% NA NA 30.00 M
6:55 pm EDT NW 6.9 10.00 Drizzle -- 56.0 52.9 90% 54 NA 29.99 M
5:55 pm EDT NW 13.8 G 17.3 7.00 Rain -- 60.0 56.5 90% 58 NA 29.96 M
4:55 pm EDT W 6.9 5.00 Light Rain -- 65.0 61.7 90% NA NA 29.93 M
3:55 pm EDT SW 9.2 10.00 Rain -- 65.0 62.4 90% NA NA 29.93 M
2:55 pm EDT SW 10.4 G 15.0 7.00 Light Rain -- 67.0 61.9 83% NA NA 29.93 M

Regional Weather Observation


Cherry Capital Airport, MI (KTVC)

Light Rain
53.0 F

Bellaire, Antrim County Airport, MI (KACB)

Light Rain
50.0 F

Frankfort, Frankfort Dow Memorial Field Airport, MI (KFKS)

Partly Cloudy
53.0 F

Manistee County - Blacker Airport, MI (KMBL)

Mostly Cloudy
52.0 F

Grayling, Grayling Army Airfield, MI (KGOV)

Rain
48.0 F

Houghton Lake, Roscommon County Airport, MI (KHTL)

Rain Fog/Mist
50.0 F

Advertise Here